This demonstration page uses our WeatherBlox Daily Observations layout. Learn more.

Left ArrowRight Arrow

Hourly Observations for August 10, 2022

Temp ( °F °C ) Dew Point ( °F °C ) Humidity (%) Winds ( mph kmh ) Pressure ( in mb ) Visibility ( mi km ) Precip ( " mm )
12:59 am 00:59 Partly Cloudy 82 27.8 74 23.3 77 77 SSW 9 15 30.06 1018 10 16 0.00 0.00
1:59 am 01:59 Partly Cloudy 82 27.8 74 23.3 77 77 SSW 9 15 30.06 1018 10 16 0.00 0.00
2:59 am 02:59 Mostly Cloudy 81 27.2 70 21.1 69 69 SW 9 15 30.05 1018 10 16 0.00 0.00
3:59 am 03:59 Mostly Cloudy 81 27.2 70 21.1 69 69 SW 8 13 30.06 1018 10 16 0.00 0.00
4:59 am 04:59 Mostly Cloudy 81 27.2 70 21.1 69 69 SW 7 11 30.06 1018 10 16 0.00 0.00
5:59 am 05:59 Mostly Cloudy 80 26.7 70 21.1 71 71 SW 8 13 30.06 1018 10 16 0.00 0.00
6:59 am 06:59 Mostly Sunny 79 26.1 72 22.2 79 79 SW 10 17 30.07 1018 10 16 0.00 0.00
7:59 am 07:59 Mostly Sunny 79 26.1 72 22.2 79 79 WSW 8 13 30.08 1019 10 16 0.00 0.00
8:59 am 08:59 Mostly Sunny 83 28.3 73 22.8 72 72 WSW 9 15 30.08 1019 10 16 0.00 0.00
9:59 am 09:59 Mostly Sunny 83 28.3 73 22.8 72 72 SW 8 13 30.08 1019 10 16 0.00 0.00
10:59 am 10:59 Partly Cloudy 87 30.6 74 23.3 65 65 WSW 7 11 30.09 1019 10 16 0.00 0.00
11:59 am 11:59 Partly Cloudy 88 31.1 75 23.9 66 66 W 13 20 30.08 1019 10 16 0.00 0.00
12:59 pm 12:59 Mostly Cloudy 90 32.2 75 23.9 62 62 W 12 19 30.08 1019 10 16 0.00 0.00
1:59 pm 13:59 Mostly Cloudy with Thunderstorms 90 32.2 75 23.9 62 62 W 6 9 30.05 1018 10 16 0.00 0.00
2:59 pm 14:59 Mostly Cloudy with Thunderstorms 90 32.2 75 23.9 62 62 W 14 22 30.02 1017 10 16 0.00 0.00
3:59 pm 15:59 Mostly Cloudy with Thunderstorms 90 32.2 75 23.9 62 62 WNW 16 26 30.00 1016 10 16 0.00 0.00
4:16 pm 16:16 Mostly Cloudy with Thunderstorms 91 32.8 75 23.9 60 60 NNW 25 41 30.03 1017 3 5 0.00 0.00
4:19 pm 16:19 Mostly Cloudy with Thunderstorms 91 32.8 75 23.9 60 60 NNW 30 48 30.04 1017 10 16 0.00 0.00
4:59 pm 16:59 Mostly Cloudy with Thunderstorms 83 28.3 71 21.7 67 67 NNW 15 24 30.04 1017 10 16 0.00 0.00
5:59 pm 17:59 Mostly Cloudy with Thunderstorms 79 26.1 66 18.9 65 65 SSW 8 13 30.01 1016 10 16 0.00 0.00
6:59 pm 18:59 Mostly Cloudy with Thunderstorms 76 24.4 72 22.2 88 88 WSW 8 13 30.04 1017 9 14 0.01 0.13
7:59 pm 19:59 Cloudy with Thunderstorms 77 25 69 20.6 77 77 SW 8 13 30.05 1018 5 8 0.08 2.03
8:24 pm 20:24 Windy with Storms Likely 77 25 69 20.6 77 77 NW 24 39 30.09 1019 8 13 0.03 0.76
8:59 pm 20:59 Cloudy with Thunderstorms 75 23.9 71 21.7 88 88 NNW 23 37 30.08 1019 10 16 0.04 1.02
9:55 pm 21:55 Mostly Cloudy 73 23 72 22 94 94 NNE 6 9 30.05 1018 10 16 0.04 1.02
9:59 pm 21:59 Mostly Cloudy 74 23.3 72 22.2 94 94 NE 3 6 30.05 1018 10 16 0.04 1.02
10:59 pm 22:59 Mostly Cloudy 76 24.4 69 20.6 79 79 SW 3 6 30.04 1017 10 16 0.00 0.00
11:59 pm 23:59 Mostly Cloudy 76 24.4 69 20.6 79 79 S 6 9 30.02 1017 10 16 0.00 0.00

Powered by AerisWeather